| time (UTC) | temp F | wind direction | speed MPH | gust MPH | rain 1hr in | rain 24hr in | rain mn in | humidity % | barometer mb |
| 20260507114552 | 37 | 277 | 0.0 | 4.0 | 0.00 | 0.00 | 0.00 | 100 | |
| 20260507112551 | 38 | 303 | 3.0 | 4.0 | 0.00 | 0.00 | 0.00 | 100 | |
| 20260507111116 | 38 | 286 | 3.0 | 5.0 | 0.00 | 0.00 | 0.00 | 100 | |
| 20260507110550 | 38 | 286 | 3.0 | 5.0 | 0.00 | 0.00 | 0.00 | 100 | |
| 20260507104733 | 40 | 300 | 3.0 | 3.0 | 0.00 | 0.00 | 0.00 | 100 | |
| 20260507104549 | 40 | 300 | 3.0 | 3.0 | 0.00 | 0.00 | 0.00 | 100 | |
| 20260507102548 | 39 | 196 | 1.0 | 3.0 | 0.00 | 0.00 | 0.00 | 100 | |
| 20260507100547 | 38 | 298 | 3.0 | 4.0 | 0.00 | 0.00 | 0.00 | 100 | |
| 20260507094546 | 40 | 168 | 0.0 | 1.0 | 0.00 | 0.00 | 0.00 | 100 | |
| 20260507092544 | 38 | 87 | 0.0 | 0.0 | 0.00 | 0.00 | 0.00 | 100 | |
| 20260507090543 | 37 | 144 | 1.0 | 4.0 | 0.00 | 0.00 | 0.00 | 100 | |
| 20260507084542 | 36 | 94 | 0.0 | 2.0 | 0.00 | 0.00 | 0.00 | 100 | |
| 20260507082541 | 36 | 126 | 0.0 | 0.0 | 0.00 | 0.00 | 0.00 | 100 | |
| 20260507080540 | 36 | 203 | 1.0 | 4.0 | 0.00 | 0.00 | 0.00 | 100 | |
| 20260507074539 | 35 | 354 | 0.0 | 0.0 | 0.00 | 0.00 | 0.00 | 100 | |
| 20260507072539 | 35 | 354 | 0.0 | 0.0 | 0.00 | 0.00 | 0.00 | 100 | |
| 20260507070537 | 37 | 153 | 0.0 | 0.0 | 0.00 | 0.00 | 0.00 | 100 | |
| 20260507064536 | 35 | 153 | 0.0 | 0.0 | 0.00 | 0.00 | 0.00 | 100 | |
| 20260507062535 | 35 | 153 | 0.0 | 0.0 | 0.00 | 0.00 | 0.00 | 100 | |
| 20260507060533 | 35 | 153 | 0.0 | 0.0 | 0.00 | 0.00 | 0.00 | 100 | |
| 20260507054532 | 35 | 153 | 0.0 | 0.0 | 0.00 | 0.00 | 0.00 | 100 | |
| 20260507052531 | 35 | 153 | 0.0 | 3.0 | 0.00 | 0.00 | 0.00 | 100 | |
| 20260507050529 | 34 | 143 | 1.0 | 2.0 | 0.00 | 0.00 | 0.00 | 100 | |
| 20260507044528 | 34 | 154 | 2.0 | 2.0 | 0.00 | 0.00 | 0.00 | 100 | |
| 20260507042527 | 34 | 120 | 0.0 | 0.0 | 0.00 | 0.00 | 0.00 | 100 | |
| 20260507040526 | 34 | 99 | 0.0 | 3.0 | 0.00 | 0.00 | 0.00 | 100 | |
| 20260507034525 | 34 | 80 | 0.0 | 0.0 | 0.00 | 0.00 | 0.00 | 100 | |
| 20260507032524 | 34 | 80 | 0.0 | 3.0 | 0.00 | 0.00 | 0.00 | 100 | |
| 20260507030523 | 35 | 292 | 0.0 | 0.0 | 0.00 | 0.00 | 0.00 | 100 | |
| 20260507024521 | 35 | 292 | 0.0 | 0.0 | 0.00 | 0.00 | 0.00 | 100 | |
| 20260507022520 | 35 | 292 | 0.0 | 0.0 | 0.00 | 0.00 | 0.00 | 100 | |
| 20260507020519 | 35 | 292 | 0.0 | 0.0 | 0.00 | 0.00 | 0.00 | 100 | |
| 20260507014518 | 36 | 292 | 0.0 | 0.0 | 0.00 | 0.00 | 0.00 | 100 | |
| 20260507012517 | 36 | 292 | 0.0 | 0.0 | 0.00 | 0.00 | 0.00 | 100 | |
| 20260507010516 | 36 | 292 | 0.0 | 0.0 | 0.00 | 0.00 | 0.00 | 100 | |
| 20260507004516 | 36 | 292 | 0.0 | 0.0 | 0.00 | 0.00 | 0.00 | 100 | |
| 20260507002513 | 36 | 292 | 0.0 | 0.0 | 0.00 | 0.00 | 0.00 | 100 | |
| 20260507000512 | 36 | 292 | 0.0 | 0.0 | 0.00 | 0.00 | 0.00 | 100 | |
| 20260506234511 | 37 | 292 | 0.0 | 0.0 | 0.00 | 0.00 | 0.00 | 100 | |
| 20260506232510 | 37 | 292 | 0.0 | 0.0 | 0.00 | 0.00 | 0.00 | 100 | |
| 20260506230509 | 37 | 292 | 0.0 | 0.0 | 0.00 | 0.00 | 0.00 | 100 | |
| 20260506224508 | 37 | 292 | 0.0 | 0.0 | 0.00 | 0.00 | 0.00 | 100 | |
| 20260506220505 | 37 | 292 | 0.0 | 0.0 | 0.00 | 0.00 | 0.00 | 100 | |
| 20260506214504 | 37 | 292 | 0.0 | 0.0 | 0.00 | 0.00 | 0.00 | 100 | |
| 20260506212503 | 37 | 355 | 0.0 | 0.0 | 0.00 | 0.00 | 0.00 | 100 | |
| 20260506210502 | 37 | 327 | 7.0 | 9.0 | 0.00 | 0.00 | 0.00 | 100 | |
| 20260506204501 | 38 | 322 | 0.0 | 6.0 | 0.00 | 0.00 | 0.00 | 100 | |
| 20260506202501 | 39 | 316 | 3.0 | 6.0 | 0.00 | 0.00 | 0.00 | 100 | |
| 20260506200458 | 40 | 317 | 0.0 | 0.0 | 0.00 | 0.00 | 0.00 | 100 | |
| 20260506194457 | 41 | 333 | 0.0 | 3.0 | 0.00 | 0.00 | 0.00 | 100 | |
| 20260506192456 | 43 | 157 | 0.0 | 0.0 | 0.00 | 0.00 | 0.00 | 100 | |
| 20260506190455 | 43 | 288 | 0.0 | 0.0 | 0.00 | 0.00 | 0.00 | 100 | |
| 20260506184454 | 43 | 282 | 0.0 | 3.0 | 0.00 | 0.00 | 0.00 | 100 | |
| 20260506182453 | 45 | 289 | 2.0 | 7.0 | 0.00 | 0.00 | 0.00 | 100 | |
| 20260506180452 | 46 | 320 | 0.0 | 10.0 | 0.00 | 0.00 | 0.00 | 100 | |
| 20260506174450 | 46 | 116 | 0.0 | 12.0 | 0.00 | 0.00 | 0.00 | 100 | |
| 20260506172449 | 47 | 293 | 12.0 | 18.0 | 0.00 | 0.00 | 0.00 | 100 | |
| 20260506170448 | 55 | 144 | 6.0 | 7.0 | 0.00 | 0.00 | 0.00 | 100 | |
| 20260506164447 | 50 | 165 | 9.0 | 11.0 | 0.00 | 0.00 | 0.00 | 100 | |
| 20260506162446 | 53 | 305 | 4.0 | 8.0 | 0.00 | 0.00 | 0.00 | 100 | |
| 20260506160445 | 57 | 144 | 13.0 | 13.0 | 0.00 | 0.00 | 0.00 | 100 | |
| 20260506154443 | 57 | 149 | 6.0 | 14.0 | 0.00 | 0.00 | 0.00 | 100 | |
| 20260506152442 | 56 | 180 | 8.0 | 14.0 | 0.00 | 0.00 | 0.00 | 100 | |
| 20260506150441 | 57 | 188 | 0.0 | 10.0 | 0.00 | 0.00 | 0.00 | 100 | |
| 20260506144440 | 56 | 158 | 4.0 | 19.0 | 0.00 | 0.00 | 0.00 | 100 | |
| 20260506142439 | 59 | 140 | 3.0 | 7.0 | 0.00 | 0.00 | 0.00 | 100 | |
| 20260506140438 | 59 | 191 | 5.0 | 13.0 | 0.00 | 0.00 | 0.00 | 100 | |
| 20260506134437 | 60 | 175 | 0.0 | 11.0 | 0.00 | 0.00 | 0.00 | 100 | |
| 20260506130434 | 56 | 46 | 0.0 | 7.0 | 0.00 | 0.00 | 0.00 | 100 | |
| 20260506124433 | 60 | 264 | 7.0 | 15.0 | 0.00 | 0.00 | 0.00 | 100 | |
| 20260506122432 | 58 | 116 | 6.0 | 12.0 | 0.00 | 0.00 | 0.00 | 100 | |
| 20260506120431 | 57 | 338 | 4.0 | 13.0 | 0.00 | 0.00 | 0.00 | 100 |